Home   Weather   Yokosuka   Past weeks

Flag for Japan Past Weather in Yokosuka, Japan — Yesterday and Last 2 Weeks

Now
57 °F

Partly sunny.


Feels Like: 52 °F
Forecast: 51 / 63 °F
Wind: 28 mph from Southwest

Location: Tokyo International Airport

Current Time: Feb 23, 2017 at 7:29:54 am

Latest Report: Feb 23, 2017 at 6:30 am


Visibility: N/A

Pressure: 29.68 "Hg

Humidity: 82%

Dew Point: 52 °F

Location of YokosukaLocation

Past Weather in Yokosuka — Graph

°F

Yokosuka Temperature Yesterday

Maximum temperature yesterday: 52 °F (at 7:00 pm)
Minimum temperature yesterday: 37 °F (at 5:30 am)
Average temperature yesterday: 46 °F

High & Low Weather Summary for the Past Weeks

 TemperatureHumidityPressure
High66 °F (Feb 17, 11:30 am)100% (Feb 9, 4:30 pm)30.33 "Hg (Feb 9, 4:30 pm)
Low30 °F (Feb 11, 5:30 am)19% (Feb 11, 1:00 pm)29.27 "Hg (Feb 20, 5:00 pm)
Average45 °F48%29.92 "Hg
* Reported Feb 8 6:00 am — Feb 23 6:00 am, Yokosuka, Weather by CustomWeather, © 2017

Note: Actual official high and low records may vary slightly from our data, if they occured in-between our weather recording intervals... More about our weather records

Advertising

Yokosuka Weather History for the Previous 24 Hours

Scroll right to see more
 ConditionsComfort  
Time TempWeatherWind HumidityBarometerVisibility
6:00 am
Thu, Feb 23
55 °FScattered showers. Passing clouds.20 mph88%29.68 "HgN/A
5:30 am55 °FPartly cloudy.24 mph88%29.71 "HgN/A
5:10 am54 °FLight rain. Passing clouds.22 mph94%29.74 "HgN/A
5:00 am54 °FLight rain. Passing clouds.23 mph88%29.74 "HgN/A
4:30 am54 °FLight rain. Partly cloudy.17 mph82%29.77 "HgN/A
4:00 am54 °FLight rain. Passing clouds.21 mph77%29.77 "HgN/A
3:30 am54 °FScattered showers. Partly cloudy.23 mph77%29.80 "HgN/A
3:00 am54 °FLight rain. Partly cloudy.21 mph72%29.83 "HgN/A
2:32 am54 °FLight rain. Passing clouds.24 mph72%29.86 "HgN/A
2:30 am54 °FLight rain. Passing clouds.24 mph72%29.86 "HgN/A
2:00 am54 °FLight rain. Partly cloudy.24 mph67%29.86 "HgN/A
1:30 am54 °FPassing clouds.21 mph63%29.89 "HgN/A
1:00 am54 °FPartly cloudy.20 mph63%29.92 "HgN/A
12:30 am52 °FPassing clouds.21 mph62%29.92 "HgN/A
12:00 am52 °FPassing clouds.21 mph62%29.95 "HgN/A
11:30 pm
Wed, Feb 22
52 °FPartly cloudy.21 mph62%29.95 "HgN/A
11:10 pm52 °FPassing clouds.23 mph58%29.98 "HgN/A
11:00 pm52 °FPassing clouds.25 mph58%29.98 "HgN/A
10:30 pm52 °FPassing clouds.21 mph54%30.01 "HgN/A
10:01 pm52 °FPassing clouds.21 mph58%30.01 "HgN/A
10:00 pm52 °FPassing clouds.22 mph58%30.01 "HgN/A
9:40 pm52 °FPassing clouds.17 mph62%30.04 "HgN/A
9:30 pm52 °FPassing clouds.18 mph62%30.04 "HgN/A
9:00 pm52 °FPassing clouds.16 mph58%30.07 "HgN/A
8:30 pm52 °FPassing clouds.18 mph58%30.07 "HgN/A
8:00 pm52 °FPassing clouds.12 mph62%30.09 "HgN/A
7:30 pm52 °FPassing clouds.12 mph67%30.09 "HgN/A
7:00 pm52 °FPartly cloudy.13 mph62%30.09 "HgN/A
6:30 pm50 °FPassing clouds.9 mph71%30.12 "HgN/A
6:00 pm50 °FPassing clouds.9 mph67%30.12 "HgN/A
5:30 pm50 °FPartly cloudy.10 mph67%30.12 "HgN/A
5:00 pm50 °FPartly sunny.12 mph62%30.12 "HgN/A
4:30 pm50 °FPartly sunny.10 mph62%30.12 "HgN/A
4:00 pm50 °FBroken clouds.14 mph62%30.15 "HgN/A
3:30 pm50 °FBroken clouds.16 mph58%30.15 "HgN/A
3:00 pm50 °FLight rain. Partly sunny.16 mph58%30.15 "HgN/A
2:30 pm50 °FPartly sunny.17 mph54%30.18 "HgN/A
2:00 pm50 °FPartly sunny.16 mph47%30.18 "HgN/A
1:30 pm48 °FPartly sunny.13 mph43%30.18 "HgN/A
1:00 pm48 °FPartly sunny.13 mph43%30.21 "HgN/A
12:30 pm48 °FPartly sunny.12 mph40%30.24 "HgN/A
12:00 pm48 °FPartly sunny.9 mph37%30.24 "HgN/A
11:30 am45 °FPartly sunny.6 mph49%30.27 "HgN/A
11:00 am43 °FPartly sunny.5 mph53%30.30 "HgN/A
10:30 am45 °FPartly sunny.5 mph49%30.30 "HgN/A
10:00 am43 °FScattered clouds.5 mph46%30.33 "HgN/A
9:30 am43 °FScattered clouds.2 mph46%30.33 "HgN/A
9:00 am41 °FScattered clouds.3 mph45%30.33 "HgN/A
8:30 am41 °FPassing clouds.3 mph42%30.33 "HgN/A
8:00 am39 °FSunny.9 mph45%30.33 "Hg10 mi
7:30 am39 °FPartly sunny.9 mph45%30.33 "HgN/A
7:00 am37 °FPartly sunny.12 mph48%30.33 "HgN/A
Weather by CustomWeather, © 2017

See weather overviewHow to use our weather pages